| time (UTC) | temp F | wind direction | speed MPH | gust MPH | rain 1hr in | rain 24hr in | rain mn in | humidity % | barometer mb |
| 20260504003004 | 40 | 71 | 0.0 | 3.0 | 0.01 | 0.01 | 0.01 | 90 | 1017.3 |
| 20260504001505 | 40 | 67 | 2.0 | 4.0 | 0.00 | 0.00 | 0.00 | 89 | 1017.5 |
| 20260504000003 | 40 | 86 | 3.0 | 10.0 | 0.00 | 0.00 | 0.00 | 88 | 1017.7 |
| 20260503234502 | 41 | 121 | 3.0 | 7.0 | 0.00 | 0.00 | 0.00 | 87 | 1017.8 |
| 20260503233001 | 41 | 57 | 2.0 | 6.0 | 0.00 | 0.00 | 0.00 | 85 | 1017.8 |
| 20260503231501 | 42 | 49 | 1.0 | 5.0 | 0.00 | 0.00 | 0.00 | 85 | 1017.8 |
| 20260503230116 | 42 | 59 | 2.0 | 6.0 | 0.00 | 0.00 | 0.00 | 84 | 1017.9 |
| 20260503224604 | 42 | 31 | 1.0 | 8.0 | 0.00 | 0.00 | 0.00 | 84 | 1017.8 |
| 20260503223101 | 42 | 63 | 4.0 | 12.0 | 0.00 | 0.00 | 0.00 | 84 | 1018.0 |
| 20260503221601 | 42 | 154 | 3.0 | 13.0 | 0.00 | 0.00 | 0.00 | 82 | 1017.9 |
| 20260503220057 | 42 | 171 | 9.0 | 13.0 | 0.00 | 0.00 | 0.00 | 82 | 1017.9 |
| 20260503214555 | 42 | 84 | 5.0 | 12.0 | 0.00 | 0.00 | 0.00 | 80 | 1018.0 |
| 20260503213101 | 43 | 143 | 7.0 | 12.0 | 0.00 | 0.00 | 0.00 | 75 | 1017.9 |
| 20260503211610 | 43 | 99 | 5.0 | 10.0 | 0.00 | 0.00 | 0.00 | 74 | 1017.9 |
| 20260503210051 | 44 | 40 | 2.0 | 10.0 | 0.00 | 0.00 | 0.00 | 72 | 1017.9 |
| 20260503204549 | 44 | 169 | 4.0 | 12.0 | 0.00 | 0.00 | 0.00 | 65 | 1017.9 |
| 20260503203049 | 44 | 101 | 9.0 | 18.0 | 0.00 | 0.00 | 0.00 | 64 | 1017.6 |
| 20260503201547 | 45 | 17 | 4.0 | 17.0 | 0.00 | 0.00 | 0.00 | 60 | 1017.7 |
| 20260503200055 | 46 | 90 | 5.0 | 16.0 | 0.00 | 0.00 | 0.00 | 59 | 1017.6 |
| 20260503194545 | 46 | 101 | 3.0 | 13.0 | 0.00 | 0.00 | 0.00 | 58 | 1017.6 |
| 20260503193055 | 46 | 113 | 7.0 | 11.0 | 0.00 | 0.00 | 0.00 | 55 | 1017.4 |
| 20260503191545 | 46 | 144 | 5.0 | 9.0 | 0.00 | 0.00 | 0.00 | 55 | 1017.4 |
| 20260503190048 | 46 | 97 | 9.0 | 14.0 | 0.00 | 0.00 | 0.00 | 54 | 1017.4 |
| 20260503184551 | 47 | 142 | 7.0 | 11.0 | 0.00 | 0.00 | 0.00 | 53 | 1017.3 |
| 20260503183042 | 47 | 67 | 5.0 | 12.0 | 0.00 | 0.00 | 0.00 | 53 | 1017.3 |
| 20260503181545 | 46 | 155 | 7.0 | 13.0 | 0.00 | 0.00 | 0.00 | 54 | 1017.3 |
| 20260503180046 | 45 | 132 | 9.0 | 16.0 | 0.00 | 0.00 | 0.00 | 56 | 1017.2 |
| 20260503174542 | 44 | 150 | 8.0 | 16.0 | 0.00 | 0.00 | 0.00 | 57 | 1017.2 |
| 20260503173035 | 44 | 115 | 7.0 | 14.0 | 0.00 | 0.00 | 0.00 | 60 | 1017.3 |
| 20260503171520 | 42 | 123 | 9.0 | 16.0 | 0.00 | 0.00 | 0.00 | 61 | 1017.4 |
| 20260503150108 | 39 | 171 | 5.0 | 10.0 | 0.00 | 0.00 | 0.00 | 65 | 1017.3 |
| 20260503081534 | 40 | 174 | 11.0 | 21.0 | 0.00 | 0.00 | 0.00 | 60 | 1016.8 |
| 20260503071509 | 40 | 115 | 15.0 | 21.0 | 0.00 | 0.00 | 0.00 | 58 | 1016.2 |
| 20260503054509 | 41 | 101 | 16.0 | 24.0 | 0.00 | 0.00 | 0.00 | 55 | 1015.5 |
| 20260503053002 | 42 | 147 | 16.0 | 23.0 | 0.00 | 0.00 | 0.00 | 54 | 1015.3 |
| 20260503051601 | 42 | 141 | 13.0 | 30.0 | 0.00 | 0.00 | 0.00 | 53 | 1015.2 |
| 20260503050059 | 43 | 143 | 16.0 | 26.0 | 0.00 | 0.00 | 0.00 | 51 | 1014.9 |
| 20260503044609 | 43 | 139 | 17.0 | 30.0 | 0.00 | 0.00 | 0.00 | 50 | 1014.8 |
| 20260503043100 | 44 | 128 | 19.0 | 29.0 | 0.00 | 0.00 | 0.00 | 47 | 1014.7 |
| 20260503041556 | 45 | 137 | 16.0 | 30.0 | 0.00 | 0.00 | 0.00 | 46 | 1014.6 |
| 20260503034601 | 46 | 142 | 20.0 | 33.0 | 0.00 | 0.00 | 0.00 | 45 | 1014.1 |
| 20260503033057 | 46 | 165 | 18.0 | 27.0 | 0.00 | 0.00 | 0.00 | 44 | 1014.2 |
| 20260503031552 | 46 | 172 | 15.0 | 33.0 | 0.00 | 0.00 | 0.00 | 43 | 1014.4 |
| 20260503030120 | 47 | 144 | 17.0 | 24.0 | 0.00 | 0.00 | 0.00 | 42 | 1014.0 |
| 20260503024550 | 47 | 146 | 24.0 | 35.0 | 0.00 | 0.00 | 0.00 | 41 | 1013.6 |
| 20260503023049 | 47 | 144 | 21.0 | 35.0 | 0.00 | 0.00 | 0.00 | 40 | 1013.7 |
| 20260503021550 | 48 | 138 | 22.0 | 33.0 | 0.00 | 0.00 | 0.00 | 39 | 1014.0 |
| 20260503020047 | 49 | 113 | 24.0 | 30.0 | 0.00 | 0.00 | 0.00 | 38 | 1013.3 |
| 20260503014601 | 50 | 147 | 11.0 | 21.0 | 0.00 | 0.00 | 0.00 | 36 | 1013.5 |
| 20260503013047 | 50 | 143 | 14.0 | 32.0 | 0.00 | 0.00 | 0.00 | 36 | 1013.5 |
| 20260503011551 | 51 | 155 | 17.0 | 26.0 | 0.00 | 0.00 | 0.00 | 35 | 1013.0 |
| 20260503010041 | 51 | 148 | 17.0 | 33.0 | 0.00 | 0.00 | 0.00 | 36 | 1012.8 |
| 20260503004540 | 51 | 190 | 13.0 | 29.0 | 0.00 | 0.00 | 0.00 | 35 | 1013.1 |